Location: Dennehotso
(36.8461°N, 109.8435°W)
Time: 20:47:19
(UTC+00:00)

ISS - Pass Details

Date: 10 March 2021
Orbit: 418 x 422 km, 51.6° (Epoch: 16 April)

Event Time Altitude Azimuth Distance (km) Brightness Sun altitude
Exits shadow 12:30:31 11° 323° (NW) 1,444 -1.3 -14.1°
Maximum altitude 12:33:37 43° 36° (NE) 598 -2.7 -13.5°
Drops below altitude 10° 12:36:49 10° 110° (ESE) 1,491 0.1 -12.9°
Sets 12:38:59 0° 117° (ESE) 2,351 1.1 -12.5°
